Flag for Taiwan Weather past 2 weeks in Taichung, Taiwan

Now
88 °F

Scattered clouds.


Feels Like: 96 °F
Forecast: 79 / 92 °F
Wind: 9 mph from Northeast

Location: Chiang Kai Shek

Current Time: Aug 4, 2015 at 5:47:11 PM

Latest Report: Aug 4, 2015 at 5:00 PM


Visibility: N/A

Pressure: 29.74 "Hg

Humidity: 62%

Dew point: 73 °F

Location of TaichungLocation

Historic Weather in Taichung — Graph

°F

Taichung temperature yesterday

Maximum temperature yesterday: 90 °F (at 9:30 AM)
Minimum temperature yesterday: 79 °F (at 2:30 AM)
Average temperature yesterday: 84 °F

Past Weeks' High & Low Weather Summary

 TemperatureHumidityPressure
High102 °F (Jul 30, 3:53 PM)94% (Jul 21, 2:00 AM)29.92 "Hg (Jul 21, 2:00 AM)
Low75 °F (Jul 28, 6:00 PM)34% (Jul 24, 10:30 AM)29.71 "Hg (Jul 25, 3:30 PM)
Average85 °F70%29.83 "Hg
* Reported Jul 20 5:00 PM — Aug 4 5:00 PM, Taichung, Weather by CustomWeather, © 2015

Note: Actual official high and low records may vary slightly from our data, if they occured in-between our weather recording intervals... More about our weather records

Advertising

Taichung weather history for previous 24 hours

 ConditionsComfort  
Time TempWeatherWind HumidityBarometerVisibility
5:00 PM
Tue, Aug 4
88 °FScattered clouds.9 mph62%29.74 "HgN/A
4:30 PM88 °FPassing clouds.12 mph66%29.74 "HgN/A
4:00 PM88 °FPassing clouds.10 mph59%29.74 "HgN/A
3:30 PM90 °FPassing clouds.10 mph59%29.74 "HgN/A
3:00 PM90 °FPassing clouds.12 mph59%29.74 "HgN/A
2:30 PM90 °FPassing clouds.9 mph59%29.74 "HgN/A
2:00 PM90 °FPassing clouds.9 mph59%29.74 "HgN/A
1:30 PM90 °FPassing clouds.10 mph59%29.77 "HgN/A
1:00 PM90 °FPassing clouds.9 mph55%29.77 "HgN/A
12:30 PM90 °FPassing clouds.10 mph55%29.77 "HgN/A
12:00 PM90 °FPassing clouds.12 mph59%29.77 "HgN/A
11:30 AM90 °FScattered clouds.12 mph59%29.77 "HgN/A
11:00 AM90 °FScattered clouds.9 mph59%29.77 "HgN/A
10:30 AM90 °FScattered clouds.9 mph59%29.80 "HgN/A
10:00 AM88 °FScattered clouds.9 mph66%29.80 "HgN/A
9:30 AM86 °FScattered clouds.9 mph70%29.80 "HgN/A
9:00 AM88 °FScattered clouds.8 mph62%29.80 "HgN/A
8:30 AM88 °FScattered clouds.6 mph62%29.80 "HgN/A
8:00 AM86 °FScattered clouds.6 mph70%29.83 "HgN/A
7:30 AM84 °FScattered clouds.6 mph74%29.83 "HgN/A
7:00 AM82 °FPassing clouds.5 mph79%29.83 "HgN/A
6:30 AM81 °FPassing clouds.5 mph84%29.83 "HgN/A
6:00 AM79 °FPassing clouds.3 mph89%29.83 "HgN/A
5:30 AM79 °FPassing clouds.3 mph89%29.83 "HgN/A
5:00 AM79 °FPassing clouds.5 mph89%29.80 "HgN/A
4:30 AM79 °FPassing clouds.6 mph84%29.80 "HgN/A
4:00 AM79 °FPassing clouds.6 mph84%29.80 "HgN/A
3:30 AM79 °FPassing clouds.5 mph84%29.80 "HgN/A
3:00 AM81 °FPassing clouds.5 mph79%29.80 "HgN/A
2:30 AM81 °FPassing clouds.7 mph79%29.80 "HgN/A
2:00 AM79 °FPassing clouds.7 mph84%29.80 "HgN/A
1:30 AM81 °FPassing clouds.5 mph79%29.80 "HgN/A
1:00 AM81 °FPassing clouds.5 mph79%29.80 "HgN/A
12:30 AM81 °FPassing clouds.3 mph79%29.80 "HgN/A
12:00 AM81 °FPassing clouds.1 mph79%29.80 "HgN/A
11:30 PM
Mon, Aug 3
79 °FPassing clouds.1 mph84%29.80 "HgN/A
11:00 PM79 °FPassing clouds.1 mph84%29.80 "HgN/A
10:30 PM81 °FPassing clouds.2 mph79%29.80 "HgN/A
10:00 PM81 °FPassing clouds.3 mph79%29.83 "HgN/A
9:30 PM81 °FPassing clouds.3 mph79%29.83 "HgN/A
9:00 PM81 °FPassing clouds.3 mph79%29.83 "HgN/A
8:30 PM81 °FPassing clouds.5 mph79%29.80 "HgN/A
8:00 PM81 °FPassing clouds.6 mph79%29.80 "HgN/A
7:30 PM82 °FPassing clouds.6 mph74%29.80 "HgN/A
7:00 PM82 °FPassing clouds.7 mph74%29.80 "HgN/A
6:30 PM84 °FScattered clouds.7 mph70%29.80 "HgN/A
6:00 PM86 °FScattered clouds.7 mph62%29.80 "HgN/A
5:30 PM86 °FScattered clouds.9 mph62%29.80 "HgN/A
5:00 PM88 °FScattered clouds.9 mph62%29.80 "HgN/A
Weather by CustomWeather, © 2015

See weather overviewHow to use our weather pages